Time,TemperatureF,DewpointF,PressureIn,WindDirection,WindDirectionDegrees,WindSpeedMPH,WindSpeedGustMPH,Humidity,HourlyPrecipIn,Conditions,Clouds,dailyrainin,SoftwareType,DateUTC
2013-05-14 00:00:00,52.0,-99.9,30.13,SSE,160,4.0,7.0,-999,-99.99,,,-99.99,,2013-05-14 07:00:00,
2013-05-14 00:52:00,52.0,-99.9,30.13,SSE,160,4.0,7.0,-999,-99.99,,,-99.99,,2013-05-14 07:52:00,
2013-05-14 01:00:00,51.0,-99.9,30.14,ESE,120,7.0,9.0,-999,-99.99,,,-99.99,,2013-05-14 08:00:00,
2013-05-14 01:52:00,51.0,-99.9,30.14,ESE,120,7.0,9.0,-999,-99.99,,,-99.99,,2013-05-14 08:52:00,
2013-05-14 02:00:00,51.0,-99.9,30.15,SE,130,4.0,4.0,-999,-99.99,,,-99.99,,2013-05-14 09:00:00,
2013-05-14 02:55:00,51.0,-99.9,30.15,SE,130,4.0,4.0,-999,-99.99,,,-99.99,,2013-05-14 09:55:00,
2013-05-14 03:00:00,52.0,-99.9,30.16,SE,140,7.0,7.0,-999,-99.99,,,-99.99,,2013-05-14 10:00:00,
2013-05-14 03:53:00,52.0,-99.9,30.16,SE,140,7.0,7.0,-999,-99.99,,,-99.99,,2013-05-14 10:53:00,
2013-05-14 04:00:00,52.0,-99.9,30.17,ESE,110,7.0,9.0,-999,-99.99,,,-99.99,,2013-05-14 11:00:00,
2013-05-14 04:53:00,52.0,-99.9,30.17,ESE,110,7.0,9.0,-999,-99.99,,,-99.99,,2013-05-14 11:53:00,
2013-05-14 05:00:00,52.0,-99.9,30.17,SE,130,9.0,11.0,-999,-99.99,,,-99.99,,2013-05-14 12:00:00,
2013-05-14 05:52:00,52.0,-99.9,30.17,SE,130,9.0,11.0,-999,-99.99,,,-99.99,,2013-05-14 12:52:00,
2013-05-14 06:00:00,51.0,-99.9,30.18,East,100,16.0,18.0,-999,-99.99,,,-99.99,,2013-05-14 13:00:00,
2013-05-14 06:52:00,51.0,-99.9,30.18,East,100,16.0,18.0,-999,-99.99,,,-99.99,,2013-05-14 13:52:00,
2013-05-14 07:00:00,51.0,-99.9,30.19,East,100,16.0,18.0,-999,-99.99,,,-99.99,,2013-05-14 14:00:00,
2013-05-14 07:53:00,51.0,-99.9,30.19,East,100,16.0,18.0,-999,-99.99,,,-99.99,,2013-05-14 14:53:00,
2013-05-14 08:00:00,52.0,-99.9,30.19,ESE,110,9.0,11.0,-999,-99.99,,,-99.99,,2013-05-14 15:00:00,
2013-05-14 08:53:00,52.0,-99.9,30.19,ESE,110,9.0,11.0,-999,-99.99,,,-99.99,,2013-05-14 15:53:00,
2013-05-14 09:00:00,51.0,-99.9,30.20,SE,130,9.0,9.0,-999,-99.99,,,-99.99,,2013-05-14 16:00:00,
2013-05-14 09:54:00,51.0,-99.9,30.20,SE,130,9.0,9.0,-999,-99.99,,,-99.99,,2013-05-14 16:54:00,
2013-05-14 10:00:00,52.0,-99.9,30.20,ESE,110,7.0,9.0,-999,-99.99,,,-99.99,,2013-05-14 17:00:00,
2013-05-14 10:53:00,52.0,-99.9,30.20,ESE,110,7.0,9.0,-999,-99.99,,,-99.99,,2013-05-14 17:53:00,
2013-05-14 11:00:00,52.0,-99.9,30.20,East,100,11.0,13.0,-999,-99.99,,,-99.99,,2013-05-14 18:00:00,
2013-05-14 11:52:00,52.0,-99.9,30.20,East,100,11.0,13.0,-999,-99.99,,,-99.99,,2013-05-14 18:52:00,
2013-05-14 12:00:00,53.0,-99.9,30.19,ESE,110,13.0,16.0,-999,-99.99,,,-99.99,,2013-05-14 19:00:00,
2013-05-14 12:53:00,53.0,-99.9,30.19,ESE,110,13.0,16.0,-999,-99.99,,,-99.99,,2013-05-14 19:53:00,
2013-05-14 13:00:00,53.0,-99.9,30.19,ESE,110,13.0,16.0,-999,-99.99,,,-99.99,,2013-05-14 20:00:00,
2013-05-14 13:52:00,53.0,-99.9,30.19,ESE,110,13.0,16.0,-999,-99.99,,,-99.99,,2013-05-14 20:52:00,
2013-05-14 14:00:00,54.0,-99.9,30.18,ESE,120,13.0,16.0,-999,-99.99,,,-99.99,,2013-05-14 21:00:00,
2013-05-14 14:53:00,54.0,-99.9,30.18,ESE,120,13.0,16.0,-999,-99.99,,,-99.99,,2013-05-14 21:53:00,
2013-05-14 15:00:00,54.0,-99.9,30.17,SE,130,11.0,13.0,-999,-99.99,,,-99.99,,2013-05-14 22:00:00,
2013-05-14 15:55:00,54.0,-99.9,30.17,SE,130,11.0,13.0,-999,-99.99,,,-99.99,,2013-05-14 22:55:00,
2013-05-14 16:00:00,54.0,-99.9,30.16,SE,130,9.0,11.0,-999,-99.99,,,-99.99,,2013-05-14 23:00:00,
2013-05-14 16:53:00,54.0,-99.9,30.16,SE,130,9.0,11.0,-999,-99.99,,,-99.99,,2013-05-14 23:53:00,
2013-05-14 17:00:00,54.0,-99.9,30.15,SE,140,9.0,11.0,-999,-99.99,,,-99.99,,2013-05-15 00:00:00,
2013-05-14 17:52:00,54.0,-99.9,30.15,SE,140,9.0,11.0,-999,-99.99,,,-99.99,,2013-05-15 00:52:00,
2013-05-14 18:00:00,54.0,-99.9,30.14,SSE,150,9.0,11.0,-999,-99.99,,,-99.99,,2013-05-15 01:00:00,
2013-05-14 18:52:00,54.0,-99.9,30.14,SSE,150,9.0,11.0,-999,-99.99,,,-99.99,,2013-05-15 01:52:00,
2013-05-14 19:00:00,54.0,-99.9,30.13,SSE,150,11.0,13.0,-999,-99.99,,,-99.99,,2013-05-15 02:00:00,
2013-05-14 19:52:00,54.0,-99.9,30.13,SSE,150,11.0,13.0,-999,-99.99,,,-99.99,,2013-05-15 02:52:00,
2013-05-14 20:00:00,54.0,-99.9,30.13,SSE,160,9.0,13.0,-999,-99.99,,,-99.99,,2013-05-15 03:00:00,
2013-05-14 20:54:00,54.0,-99.9,30.13,SSE,160,9.0,13.0,-999,-99.99,,,-99.99,,2013-05-15 03:54:00,
2013-05-14 21:00:00,53.0,-99.9,30.13,SSE,160,7.0,7.0,-999,-99.99,,,-99.99,,2013-05-15 04:00:00,
2013-05-14 21:52:00,53.0,-99.9,30.13,SSE,160,7.0,7.0,-999,-99.99,,,-99.99,,2013-05-15 04:52:00,
2013-05-14 22:00:00,53.0,-99.9,30.13,East,80,9.0,11.0,-999,-99.99,,,-99.99,,2013-05-15 05:00:00,
2013-05-14 22:52:00,53.0,-99.9,30.13,East,80,9.0,11.0,-999,-99.99,,,-99.99,,2013-05-15 05:52:00,
2013-05-14 23:00:00,53.0,-99.9,30.13,East,80,9.0,9.0,-999,-99.99,,,-99.99,,2013-05-15 06:00:00,
2013-05-14 23:52:00,53.0,-99.9,30.13,East,80,9.0,9.0,-999,-99.99,,,-99.99,,2013-05-15 06:52:00,